User: anonymous   Login
Location: Unspecified
(0.0000°N, 0.0000°E)
Time: 19:54:44
(UTC+01:00)
Language:

Hamsat - Orbit

View from above orbital plane
View from above orbital plane
View from above satellite
View from above satellite

Ground track
Ground track

The orbit data is extracted from the following two-line orbital elements,

1 28650U 05017B   14303.45895953  .00004526  00000-0  51999-3 0  8940
2 28650 097.5651 301.7293 0026505 073.1746 287.2374 14.86031348513311
Epoch (UTC): 30 October 2014 11:00:54
Eccentricity: 0.0026505
inclination: 97.5651°
perigee height: 592 km
apogee height: 629 km
right ascension of ascending node: 301.7293°
argument of perigee: 73.1746°
revolutions per day: 14.86031348
mean anomaly at epoch: 287.2374°
orbit number at epoch: 51331

The dashed part of the orbit path shows where the satellite is in the earth's shadow,  

DLR